Dewpoint
51 51 50 50 49 48 48 47 47 47 48 48 48 48 49 49 48 48 48 48 49 49 50 49 50 52 47 35 34 48 51 47 45 44 42 41 39 40 35 36 36 34 35 36 37 37 36
49 50 50 50 49 48 50 49 49 47 47 48 48 48 49 49 48 48 48 48 49 50 49 49 50 52 44 28 43 50 50 45 44 43 42 42 39 40 38 37 36 35 35 35 35 34 34
51 50 50 50 49 49 49 50 49 48 47 48 48 48 48 48 48 48 48 48 48 49 49 49 49 51 43 34 44 49 49 45 45 44 43 44 43 41 39 36 38 38 36 35 34 34 35
53 52 51 50 50 48 48 48 48 47 47 47 48 47 48 47 47 47 47 48 49 50 50 49 50 48 35 43 46 45 47 45 45 45 45 45 45 43 41 40 36 34 33 28 30 32 34
52 54 51 50 50 50 49 48 48 47 47 48 49 48 47 47 46 46 47 49 51 51 50 51 48 44 34 44 42 44 45 42 43 46 45 45 44 40 36 34 29 30 26 27 28 31 30
52 54 52 51 51 50 49 48 47 48 47 48 48 47 47 46 46 46 48 50 51 50 51 49 46 39 37 35 39 43 46 44 42 43 40 41 39 34 33 30 23 24 26 28 28 29 29
54 52 52 51 51 51 48 47 48 48 49 48 47 47 47 45 46 47 49 45 33 33 43 35 35 36 37 39 41 42 45 42 43 41 32 37 33 28 29 31 30 30 30 28 28 29 30
54 53 52 52 51 51 51 49 50 50 51 48 47 47 46 45 46 47 48 41 39 40 33 37 38 39 40 39 36 38 43 38 36 33 34 34 30 31 32 32 31 32 29 28 29 29 30
55 54 53 53 52 51 50 52 52 50 49 48 49 47 45 45 46 47 45 42 45 43 33 31 37 38 37 39 36 35 41 38 35 33 33 30 30 34 33 32 32 31 29 27 27 29 30
56 55 55 54 53 52 51 51 51 48 48 48 48 46 45 45 44 45 41 45 44 37 27 20 31 36 39 39 35 40 42 37 36 32 35 34 34 33 32 32 34 28 31 31 30 29 24
54 55 56 56 54 53 52 49 50 47 48 49 47 46 45 45 44 43 44 43 43 34 3 23 33 41 40 36 36 36 43 40 34 33 34 30 31 32 32 32 35 31 32 33 32 30 28
49 52 54 56 55 54 53 50 50 47 48 49 47 46 45 44 45 45 44 42 37 19 3 21 34 35 35 37 37 39 39 42 40 37 36 35 37 37 35 36 36 35 34 33 34 29 21
49 50 52 54 56 55 53 51 49 47 47 49 47 46 45 46 42 45 43 38 20 10 23 20 27 34 32 31 33 34 33 34 30 27 26 29 30 36 37 33 34 35 31 21 19 19 16
48 49 50 52 54 55 54 53 50 48 47 49 47 46 45 44 46 44 40 27 10 10 20 26 31 32 29 31 31 31 29 28 31 31 29 26 22 31 36 34 31 31 30 24 17 17 18
47 48 49 49 51 52 56 54 51 48 49 48 45 43 42 44 45 44 35 21 7 11 24 28 29 28 27 30 31 30 29 28 29 32 26 26 25 28 33 35 33 30 28 30 28 27 23
46 47 48 49 51 52 51 55 52 49 50 47 42 41 42 46 45 41 34 25 18 25 30 29 18 26 25 25 27 28 27 28 28 31 31 29 26 28 29 32 33 32 30 27 27 19 18
44 46 47 48 49 51 51 52 53 50 49 46 42 37 43 45 43 38 31 29 27 30 31 29 26 25 27 27 27 26 26 26 28 30 31 30 31 25 28 25 25 27 28 31 30 28 22
46 46 46 47 49 50 50 51 53 51 49 44 42 34 45 44 36 35 31 32 32 32 34 31 31 29 28 27 27 27 26 26 29 31 29 30 31 27 25 27 26 28 26 30 26 22 25
45 45 45 45 47 49 50 51 51 52 48 43 39 39 46 43 30 30 32 34 33 31 31 31 30 31 31 29 25 28 28 29 31 32 29 30 28 24 20 21 24 24 25 27 29 29 25
44 43 44 45 45 48 50 50 49 50 48 43 39 34 39 41 37 30 31 30 30 33 30 31 30 32 31 30 30 29 29 29 32 32 33 31 29 27 23 24 26 26 26 26 26 24 23
43 44 45 45 46 46 46 49 49 50 49 43 39 34 34 31 34 32 33 31 31 26 32 32 31 31 30 28 28 28 29 28 28 30 34 32 27 27 28 29 28 27 26 25 24 23 23
42 42 42 44 44 45 45 46 49 46 50 43 36 35 36 32 33 32 32 32 29 29 31 30 30 28 31 28 25 20 26 27 25 28 31 30 27 27 25 25 24 23 23 22 20 22 22
42 42 41 41 45 45 44 45 49 45 49 43 41 39 35 34 33 32 31 30 31 28 28 29 30 30 28 29 31 30 30 28 27 28 27 27 26 25 22 24 21 13 15 15 17 20 20
41 42 42 41 43 45 46 48 49 46 48 43 41 38 33 31 32 31 31 32 31 30 23 28 30 28 27 29 28 27 27 27 27 28 29 27 26 25 23 20 10 13 18 14 16 18 19
39 41 41 40 42 43 45 46 48 47 49 44 42 38 32 27 32 31 31 32 32 31 29 26 28 29 29 27 22 16 10 19 24 26 26 29 26 24 20 19 19 12 13 11 13 17 14
34 35 39 40 41 42 43 45 46 48 47 44 43 41 36 28 27 29 28 26 26 27 27 28 31 31 29 25 21 12 7 6 5 20 27 28 26 23 21 18 13 14 17 15 16 13 16
34 34 35 37 39 41 42 45 45 50 49 45 43 42 38 33 31 27 25 25 26 26 25 29 29 28 28 23 17 14 10 10 8 5 18 23 23 23 23 22 21 22 21 16 10 9 17
34 34 34 34 36 38 40 42 45 49 47 45 43 44 39 33 32 32 28 26 27 27 24 28 26 27 26 21 18 18 15 12 10 11 16 15 19 20 21 21 14 21 11 8 11 16 21
32 34 34 34 34 36 38 40 42 49 49 47 42 44 41 37 34 37 36 34 32 28 27 29 24 26 26 21 22 19 16 16 12 11 17 12 17 16 20 17 22 22 17 15 18 19 20
Wind_Speed
7 7 7 7 8 7 8 7 6 6 7 7 8 9 10 11 12 13 13 13 15 13 12 11 12 15 5 3 1 2 2 3 4 4 5 5 5 3 2 3 7 12 10 13 14 16 15
6 8 9 10 10 7 8 7 8 9 9 10 10 9 10 11 12 13 14 14 13 13 12 10 10 9 2 3 1 1 1 3 3 2 3 2 3 2 7 6 6 5 14 20 16 24 20
10 8 9 10 11 9 9 8 8 9 10 11 11 11 11 12 13 14 15 16 15 12 11 9 7 2 1 4 2 2 3 1 1 2 3 2 2 2 1 6 5 10 19 17 15 18 11
12 11 9 9 11 10 11 10 9 10 10 11 11 12 13 12 13 14 16 17 17 15 11 6 4 2 5 3 3 3 2 4 1 1 1 3 2 5 4 6 7 8 9 10 4 1 6
12 11 9 9 10 11 12 10 11 10 10 10 10 11 13 14 14 15 17 20 20 10 4 3 2 2 5 7 3 1 4 3 3 1 1 1 1 4 2 4 7 5 13 15 17 13 15
12 10 11 11 10 11 11 10 11 11 10 9 8 10 11 12 14 15 17 20 7 1 3 3 2 2 4 2 2 2 2 2 2 3 2 3 1 3 4 3 9 8 12 12 16 4 9
15 14 13 12 11 12 9 9 9 11 9 8 9 10 10 11 13 13 11 5 3 1 1 6 1 3 4 4 2 2 3 2 0 2 2 2 5 14 17 15 19 20 23 31 31 23 22
17 17 16 15 13 13 14 12 10 8 6 6 10 9 10 11 11 12 4 3 1 2 9 6 10 8 8 4 4 3 5 3 1 5 2 3 17 17 12 13 17 22 28 34 30 26 23
21 20 19 17 16 14 14 13 11 5 3 5 9 9 11 9 9 5 3 1 1 2 4 6 5 4 2 6 4 4 11 3 2 4 5 9 14 7 14 17 18 21 21 28 31 28 23
22 22 21 20 18 16 14 13 10 5 2 5 4 7 9 9 4 3 3 2 3 3 4 4 3 2 3 3 4 4 10 2 2 5 5 9 4 7 13 17 13 19 9 21 28 20 13
20 22 23 23 22 19 17 14 10 6 5 7 1 5 7 5 6 2 1 3 2 1 6 2 3 0 2 4 6 2 3 3 8 7 1 9 13 13 15 12 3 13 13 22 24 26 19
19 20 20 25 24 23 21 17 14 9 8 7 2 2 2 3 2 4 1 3 2 3 8 2 2 2 2 4 3 2 2 2 3 5 8 19 4 6 6 9 13 18 17 26 19 7 7
20 18 18 19 24 26 24 20 17 11 10 9 5 2 3 2 2 3 1 3 3 5 2 3 4 3 3 4 4 5 3 5 5 6 5 10 4 4 6 9 5 8 12 9 4 2 10
22 20 17 18 18 27 27 24 21 16 12 11 7 2 3 9 0 1 2 3 5 4 6 1 2 2 5 2 5 3 2 7 7 8 6 5 13 5 6 9 6 9 4 7 9 11 25
23 22 19 19 19 18 28 28 24 21 14 14 10 2 4 8 12 1 2 4 8 6 4 5 1 3 3 2 5 3 5 5 5 12 4 6 8 9 11 9 5 3 6 4 9 11 8
25 24 22 20 20 18 16 30 27 25 23 20 8 3 5 6 14 4 3 8 7 5 4 4 5 5 4 3 2 2 3 5 4 12 7 3 13 9 7 3 11 9 4 6 4 8 10
26 24 23 22 20 19 17 18 29 28 30 20 7 4 4 13 7 3 9 10 7 9 7 7 6 4 8 3 6 5 6 5 6 2 9 2 5 12 10 5 6 3 4 4 6 5 7
19 18 21 21 21 21 20 15 24 31 31 19 10 7 11 11 9 6 10 7 4 5 6 6 4 9 8 6 4 6 7 7 4 3 3 4 3 9 21 18 9 4 4 1 6 7 10
20 20 21 21 22 23 22 20 23 33 37 14 13 6 7 6 13 17 5 6 7 6 8 9 8 10 6 6 5 10 7 5 4 4 3 4 3 12 14 3 2 4 4 6 5 7 12
15 19 21 20 21 22 23 24 24 41 41 18 10 12 7 11 7 10 11 8 8 8 8 7 5 6 6 7 10 6 4 4 1 5 5 3 5 11 16 20 12 18 17 12 12 7 11
13 15 16 19 20 18 25 27 24 37 44 19 12 11 13 17 24 20 9 4 12 12 9 12 5 15 11 7 4 9 8 7 5 3 3 4 8 11 20 25 23 24 25 25 14 18 13
17 18 18 18 21 23 28 28 31 32 42 20 11 8 7 5 19 29 22 8 14 9 11 9 13 10 16 13 12 7 5 2 7 1 3 2 7 6 23 17 6 21 22 19 19 15 22
17 20 21 21 16 20 26 36 34 37 36 6 3 2 11 12 18 22 27 28 15 11 10 9 19 13 11 22 19 17 9 8 9 4 2 3 3 5 9 13 19 4 6 10 10 9 7
20 19 21 23 22 20 24 32 30 43 50 7 8 6 7 11 19 23 16 27 27 23 10 4 8 10 4 4 1 1 3 9 10 13 8 4 1 2 10 14 3 3 12 6 8 15 10
21 22 23 24 25 25 27 33 22 43 48 14 5 6 6 9 17 16 16 13 17 12 10 5 7 3 6 4 2 5 2 2 3 3 9 9 3 4 4 7 12 4 4 6 5 6 7
22 25 25 25 26 27 29 31 37 46 46 25 8 5 2 6 15 10 14 11 9 11 7 5 2 2 3 4 2 2 4 2 3 2 6 6 2 2 2 4 4 4 2 1 3 2 10
19 22 25 27 27 27 31 37 35 34 39 26 8 8 10 3 2 8 7 15 8 6 6 5 7 4 0 6 5 6 4 2 4 4 5 4 3 10 10 6 11 14 7 1 4 8 13
21 22 24 25 28 29 30 36 39 44 43 32 25 15 14 6 5 2 2 5 6 8 11 8 7 3 4 8 7 5 5 5 3 3 5 8 8 6 4 5 6 2 5 3 4 4 6
22 23 25 26 28 29 28 32 36 33 44 41 9 13 8 3 2 1 2 1 1 4 8 9 2 6 9 6 5 3 4 2 4 4 2 5 9 3 12 8 7 4 7 4 2 5 4
Wind_Direction
268 267 268 275 285 289 294 293 299 306 312 320 324 328 333 331 332 331 329 327 331 330 328 325 330 336 359 3 300 229 181 14 359 7 38 25 26 5 314 298 306 257 268 265 273 285 287
282 281 277 280 277 276 288 290 301 300 308 311 313 321 325 327 329 325 322 323 321 322 323 321 322 332 39 357 322 193 187 320 313 349 351 1 343 331 286 257 252 292 289 286 288 283 274
256 264 277 286 279 270 279 284 291 296 300 303 311 317 321 322 323 323 322 319 317 314 310 310 314 333 15 223 2 337 194 273 344 338 320 280 262 242 273 276 264 279 290 290 275 266 263
271 249 262 281 285 280 277 279 281 290 297 304 311 315 316 319 320 321 320 318 311 302 295 292 300 73 263 263 300 283 209 294 16 2 275 317 274 267 227 310 304 282 275 284 195 137 244
285 253 253 269 274 278 279 283 285 290 292 300 308 318 320 322 322 322 322 317 311 303 247 217 88 89 289 325 270 289 184 266 310 25 22 17 289 254 226 275 292 247 275 272 292 237 261
270 253 252 257 270 275 280 283 289 291 294 300 317 321 322 321 320 324 326 319 294 34 97 101 90 332 277 271 220 158 55 102 311 333 75 77 313 293 255 230 274 284 278 271 272 302 272
258 255 248 252 259 267 264 281 284 283 282 305 318 321 321 319 320 326 337 359 336 281 193 226 212 263 269 287 215 180 145 125 113 65 338 199 259 269 269 247 258 275 280 281 274 271 279
254 251 251 247 250 262 264 258 263 278 281 327 312 314 322 319 319 323 336 56 62 268 308 255 258 262 265 248 284 225 145 188 210 294 272 285 275 268 263 268 259 263 270 273 280 274 258
249 248 247 247 247 251 265 268 256 275 298 325 311 328 316 314 320 346 320 10 66 74 291 290 226 241 222 167 258 250 166 164 241 282 254 242 266 270 289 279 267 266 269 280 278 288 269
273 245 243 242 238 240 248 268 246 245 297 287 300 329 315 315 306 351 323 11 46 84 341 254 232 271 153 169 263 207 183 163 226 273 283 275 260 256 284 288 287 298 280 267 274 288 292
305 277 239 235 237 229 234 244 239 239 261 267 277 326 318 304 312 122 342 6 69 68 316 171 209 86 143 221 311 207 169 126 247 251 210 271 272 282 289 272 186 255 285 274 272 270 286
295 294 307 240 232 227 222 225 235 237 244 204 202 301 316 305 293 263 6 79 16 38 255 237 194 226 258 205 255 151 149 225 243 277 236 257 258 268 242 300 252 265 287 286 275 268 258
286 287 296 300 251 228 219 217 212 216 233 191 169 214 185 189 284 318 105 69 330 203 35 211 236 195 240 252 266 200 197 222 246 304 275 303 259 251 212 286 287 240 297 305 303 282 260
285 280 283 292 298 253 217 215 217 194 224 175 158 153 230 223 352 304 83 75 242 234 217 307 164 197 248 198 250 229 263 277 244 226 294 315 324 215 185 220 270 272 223 297 301 307 298
284 279 278 279 282 288 239 212 211 185 189 150 122 98 250 226 214 319 124 195 232 217 171 177 171 237 271 250 230 291 228 242 241 183 217 302 265 276 226 231 174 358 239 233 273 264 275
288 280 280 277 277 278 287 218 203 183 157 146 126 198 236 187 152 139 179 245 242 206 181 151 222 203 245 234 241 245 252 217 245 202 203 253 287 278 299 237 235 218 273 308 272 308 293
283 278 276 270 271 274 268 270 203 178 154 145 131 211 186 142 130 162 217 229 264 238 194 188 215 228 229 249 222 254 257 272 232 192 190 234 216 287 313 231 287 288 290 262 274 254 306
272 274 275 272 266 265 263 244 231 174 154 144 150 195 168 155 170 207 217 209 232 240 193 224 211 219 221 191 244 250 240 229 204 173 237 225 249 278 284 292 275 246 259 152 296 307 282
286 285 282 282 278 271 260 249 223 182 160 144 166 161 168 187 201 214 243 257 230 212 203 191 217 212 198 205 233 227 255 266 219 202 237 184 256 305 324 6 40 291 252 266 243 263 274
293 283 278 285 291 281 273 255 229 195 174 160 164 165 174 203 229 188 213 243 226 213 219 191 204 179 179 231 224 258 256 287 225 231 238 185 230 228 266 275 291 296 285 277 271 261 301
329 335 301 282 296 292 313 271 228 206 176 171 176 196 180 196 212 207 195 259 213 211 213 197 220 213 189 232 230 234 257 269 263 267 192 198 261 251 259 268 277 275 278 287 265 246 256
338 336 330 313 296 291 290 300 244 199 195 187 168 163 164 182 182 204 207 231 216 205 177 212 223 213 202 219 214 229 227 218 266 269 203 215 273 307 294 287 255 294 287 274 276 258 257
336 334 329 321 308 311 296 284 250 197 189 178 186 141 148 177 176 182 210 219 221 206 221 207 210 211 216 235 242 252 248 252 254 234 224 264 284 323 274 315 313 295 327 300 288 271 275
340 332 332 328 320 317 308 325 220 204 190 163 190 141 162 183 176 194 193 210 221 221 213 211 171 187 193 123 204 227 254 254 248 246 216 222 209 248 288 329 319 258 312 268 276 294 308
334 337 335 337 333 330 327 336 311 193 188 175 182 184 179 196 194 190 202 184 209 221 216 208 192 193 144 85 313 339 315 286 225 210 215 203 172 270 285 296 287 327 7 345 15 311 341
334 329 331 335 337 333 334 318 325 199 190 171 185 176 191 170 213 171 185 179 170 185 172 197 96 163 95 111 156 203 260 256 240 170 63 144 149 208 316 295 281 279 318 311 156 349 353
331 331 329 327 330 339 338 337 319 177 177 171 198 179 191 240 247 162 173 192 163 153 152 150 166 166 66 147 192 206 249 215 244 215 181 160 185 227 238 267 281 265 304 323 22 313 331
331 331 329 329 325 330 336 330 314 187 180 179 192 191 179 199 279 211 152 141 142 170 182 158 126 189 139 173 192 203 204 224 249 217 188 193 180 208 177 232 292 235 325 36 285 305 308
321 329 331 330 331 330 329 327 332 208 189 185 180 167 168 150 228 257 290 278 244 177 146 173 201 158 169 143 194 158 196 207 233 264 207 229 200 202 200 232 257 274 268 284 268 290 326